Погода в Новотарманском

Россия / Тюменская область     57°16′58″N   65°13′31″E
темп.,
°C
ветер,
м/с
пор.,
м/с
влажн.,
%
обл.,
%
осадки,
мм/ч
давл.,
гПа
погр.,
м
18 апреля, вс
вс1823:00+4зсз336423 0.0 101847
02:00+4з4869100 0.0 1015185
05:00+4з61370100 0.0 1013463
08:00+5зсз81371100 0.0 10121217
11:00+1с11135599 0.1 10171262
14:00+1ссв9123861 0.0 10221925
17:00+1ссв810285 0.0 10262062
20:00−2ссв610390 0.0 10291281
19 апреля, пн
пн1923:00−3ссв510442 0.0 10311484
02:00−5ссв49470 0.0 10321205
05:00−5с37490 0.0 10341058
08:00−4с57415 0.0 10351370
11:00−1с5731100 0.0 10351935
14:00+1с4729100 0.0 10342315
17:00+2с562778 0.0 10332321
20:00−2ссв35430 0.0 103474
20 апреля, вт
вт2023:00−3всв23510 0.0 103450
02:00−3ю22495 0.0 103427
05:00−4зюз24505 0.0 1034101
08:000з473472 0.0 1033427
11:00+4з573392 0.0 10301323
14:00+7зсз78315 0.0 10281693
17:00+8сз68355 0.0 10261689
20:00+5зсз47535 0.0 1026108
21 апреля, ср
ср2123:00+3зсз49665 0.0 1026166
02:00+1сз497621 0.0 1027171
05:000ссз36895 0.0 1029102
08:00+4с47705 0.0 1031484
11:00+7ссв56526 0.0 10311191
14:00+9ссв444238 0.0 10321623
17:00+10св443833 0.0 10321716
20:00+6в34485 0.0 103456
22 апреля, чт
чт2223:00+4юв35595 0.0 103590
02:00+2ююв34625 0.0 103663
05:00+1ююв34665 0.0 103851
08:00+5ююв45555 0.0 1038276
11:00+9ююв45415 0.0 10381098
14:00+12ю45385 0.0 10371598
17:00+13ю55375 0.0 10361788
20:00+9ююв48525 0.0 1037166